Location: Obersdorf
(47.4079°N, 10.2781°E)
Time: 14:47:45
(UTC+02:00)

X-37B - Visible Passes

Search period start: 20 September 2021 00:00
Search period end: 30 September 2021 00:00
Orbit: 381 x 393 km, 45.0° (Epoch: 29 August)

Date Brightness Start Highest point End Pass type
(mag) Time Alt. Az. Time Alt. Az. Time Alt. Az.
21 Sep 2.9 06:19:48 10° SSW 06:22:02 18° SSE 06:24:18 10° ESE visible
22 Sep 3.3 05:22:47 10° SSE 05:23:55 12° SSE 05:25:05 10° SE visible
23 Sep 2.2 05:59:30 13° SSW 06:01:42 26° SSE 06:04:26 10° E visible
24 Sep 2.8 05:03:52 18° SE 05:03:52 18° SE 05:05:46 10° ESE visible
24 Sep 1.3 06:36:39 10° WSW 06:39:42 47° S 06:42:47 10° E visible
25 Sep 1.6 05:40:29 29° SSW 05:41:25 36° SSE 05:44:22 10° E visible
26 Sep 3.2 04:44:46 17° ESE 04:44:46 17° ESE 04:45:54 10° E visible
26 Sep 1.0 06:17:04 15° WSW 06:19:30 54° S 06:22:36 10° E visible
27 Sep 1.2 05:21:20 46° SSE 05:21:20 46° SSE 05:24:14 10° E visible
28 Sep 3.9 04:25:37 11° E 04:25:37 11° E 04:25:50 10° E visible
28 Sep 0.8 05:57:54 28° WSW 05:59:18 55° S 06:02:24 10° ESE visible
29 Sep 2.2 05:02:12 31° ESE 05:02:12 31° ESE 05:04:04 10° E visible
29 Sep 1.3 06:34:29 11° W 06:37:23 41° SSW 06:40:24 10° ESE visible
